This is the latest recevied weather packets stored in our database for station/object KB9PMA-1. If no packets are shown the sender has not sent any weather packets the latest 10 day(s).
| Time | Temp. | Humidity | Pressure | Rain* | Wind** | Luminosity | Snow |
|---|---|---|---|---|---|---|---|
| 1777961578 | 13.89° C | 91% | 1008.4 hPa | 3.81 mm | - | - | - |
| 1777961278 | 13.89° C | 91% | 1008.5 hPa | 3.05 mm | - | - | - |
| 1777960978 | 13.89° C | 90% | 1008.5 hPa | 2.54 mm | - | - | - |
| 1777960678 | 14.44° C | 90% | 1008.3 hPa | 2.29 mm | - | - | - |
| 1777960378 | 14.44° C | 89% | 1008.1 hPa | 2.29 mm | - | - | - |
| 1777960078 | 14.44° C | 89% | 1008 hPa | 2.03 mm | - | - | - |
| 1777959778 | 14.44° C | 88% | 1007.9 hPa | 1.78 mm | - | - | - |
| 1777959478 | 15° C | 86% | 1007.9 hPa | 1.52 mm | - | - | - |
| 1777959178 | 15° C | 86% | 1008.1 hPa | 1.27 mm | - | - | - |
| 1777958878 | 15° C | 84% | 1008.1 hPa | 0.76 mm | - | - | - |
| 1777958578 | 15.56° C | 83% | 1008 hPa | 0.76 mm | - | - | - |
| 1777958278 | 15.56° C | 81% | 1007.8 hPa | 0.51 mm | - | - | - |
| 1777957978 | 16.11° C | 79% | 1007.4 hPa | 0.25 mm | - | - | - |
| 1777957678 | 16.67° C | 77% | 1007.2 hPa | 0.25 mm | - | - | - |
| 1777957378 | 17.78° C | 74% | 1007.1 hPa | 0 mm | - | - | - |
| 1777957078 | 17.78° C | 66% | 1006.9 hPa | 0 mm | - | - | - |
| 1777956778 | 18.33° C | 64% | 1006.7 hPa | 0 mm | - | - | - |
| 1777956478 | 18.89° C | 61% | 1006.6 hPa | 0 mm | - | - | - |
| 1777956178 | 19.44° C | 59% | 1006.2 hPa | 0 mm | - | - | - |
| 1777955878 | 19.44° C | 59% | 1005.8 hPa | 0 mm | - | - | - |
| 1777955578 | 19.44° C | 59% | 1005.7 hPa | 0 mm | - | - | - |
| 1777955278 | 19.44° C | 57% | 1005.6 hPa | 0 mm | - | - | - |
| 1777954978 | 18.89° C | 59% | 1005.2 hPa | 0 mm | - | - | - |
| 1777954678 | 18.89° C | 60% | 1004.3 hPa | 0 mm | - | - | - |
| 1777954378 | 18.89° C | 60% | 1004.2 hPa | 0 mm | - | - | - |
* Rain latest hour (hover to see other rain measurements)
** Current wind speed in m/s (hover to see current wind gust speed)